Tracking 30995 objects as of 7-Jul-2025
HD Live streaming from Space Station
objects crossing your sky now

ICEYE-X17

Track ICEYE-X17 now!
10-day predictions


NORAD ID: 52762
Int'l Code: 2022-057AG
Perigee: 318.0 km
Apogee: 330.1 km
Inclination: 97.6 °
Period: 90.9 minutes
Semi major axis: 6695 km
RCS: Unknown
Launch date: May 25, 2022
Source: United States (US)
Launch site: AIR FORCE EASTERN TEST RANGE (AFETR)
Your satellite tracking list
DMC 3-FM3
Track 1 satellite(s)




NASA's NSSDC Master Catalog

Two Line Element Set (TLE):
1 52762U 22057AG  25187.87724544  .00242108  00000-0  10197-2 0  9999
2 52762  97.5827 335.2516 0009094 186.6085 173.5066 15.84792794173840
Source of the keplerian elements: AFSPC